Weather History for Naples, FL

Change the Weather History Date:

Tuesday, February 5, 2013

  Actual Average Record
Temperature  
Mean Temperature 65 °F 66 °F  
Max Temperature 78 °F 76 °F 86 °F (1975)
Min Temperature 51 °F 56 °F 32 °F (1996)
Degree Days  
Heating Degree Days 0 2  
Month to date heating degree days 13 10  
Since 1 July heating degree days 71 190  
Cooling Degree Days 0 3  
Month to date cooling degree days 0 14  
Year to date cooling degree days 193 100  
Growing Degree Days 14 (Base 50)    
Moisture  
Dew Point 53 °F    
Average Humidity 66    
Maximum Humidity 87    
Minimum Humidity 45    
Precipitation  
Precipitation 0.00 in 0.07 in 1.55 in (1952)
Month to date precipitation 0.00 0.37  
Year to date precipitation 0.15 2.22  
Snow  
Snow 0.00 in - - ()
Month to date snowfall 0.0  
Since 1 July snowfall 0.0  
Snow Depth 0.00 in    
Sea Level Pressure  
Sea Level Pressure 30.05 in    
Wind  
Wind Speed 5 mph (ESE)    
Max Wind Speed 14 mph    
Max Gust Speed 17 mph    
Visibility 10 miles    
Events      
T = Trace of Precipitation, MM = Missing Value Source: NWS Daily Summary

Daily Weather History Graph

Daily Weather History Graph

Search for Another Location

Airport:

Trip Planner

Search our weather history database for the weather conditions in past years. The results will help you decide how hot, cold, wet, or windy it might be!

Date:

Astronomy

Feb. 05, 2013 Rise Set
Actual Time 7:09 AM EST 6:13 PM EST
Civil Twilight 6:45 AM EST 6:37 PM EST
Nautical Twilight 6:17 AM EST 7:04 PM EST
Astronomical Twilight 5:50 AM EST 7:32 PM EST
Moon 2:39 AM EST (2/5) 1:40 PM EST (2/5)
Length of Visible Light 11h 52m
Length of Day
11h 04m
Waning Crescent, 27% of the Moon is Illuminated
Feb 5
Waning Crescent
Feb 10
New
Feb 17
First Quarter
Feb 25
Full
Mar 4
Last Quarter

Hourly Weather History & Observations

Time (EST) Temp. Dew Point Humidity Pressure Visibility Wind Dir Wind Speed Gust Speed Precip Events Conditions
12:53 AM 55.0 °F 44.1 °F 67% 30.08 in 10.0 mi NE 3.5 mph - N/A   Partly Cloudy
1:53 AM 55.0 °F 46.0 °F 72% 30.07 in 10.0 mi NNE 4.6 mph - N/A   Clear
2:53 AM 53.1 °F 46.0 °F 77% 30.04 in 10.0 mi NE 5.8 mph - N/A   Clear
3:53 AM 54.0 °F 45.0 °F 72% 30.05 in 10.0 mi NE 3.5 mph - N/A   Mostly Cloudy
4:53 AM 51.1 °F 44.1 °F 77% 30.04 in 10.0 mi ENE 6.9 mph - N/A   Clear
5:53 AM 52.0 °F 43.0 °F 71% 30.04 in 10.0 mi Calm Calm - N/A   Clear
6:53 AM 52.0 °F 43.0 °F 71% 30.05 in 10.0 mi ENE 4.6 mph - N/A   Clear
7:53 AM 55.0 °F 45.0 °F 69% 30.05 in 10.0 mi ENE 4.6 mph - N/A   Clear
8:53 AM 63.0 °F 44.1 °F 50% 30.08 in 10.0 mi East 5.8 mph - N/A   Clear
9:53 AM 70.0 °F 50.0 °F 49% 30.09 in 10.0 mi SSE 6.9 mph - N/A   Clear
10:53 AM 73.9 °F 55.0 °F 52% 30.08 in 10.0 mi SE 9.2 mph - N/A   Clear
11:53 AM 77.0 °F 55.0 °F 47% 30.07 in 10.0 mi SSE 9.2 mph 17.3 mph N/A   Clear
12:53 PM 78.1 °F 55.9 °F 46% 30.05 in 10.0 mi SW 9.2 mph - N/A   Partly Cloudy
1:53 PM 75.0 °F 57.0 °F 53% 30.03 in 10.0 mi SW 10.4 mph - N/A   Mostly Cloudy
2:53 PM 75.9 °F 55.9 °F 50% 30.01 in 10.0 mi SW 9.2 mph - N/A   Mostly Cloudy
3:53 PM 75.9 °F 57.0 °F 52% 30.01 in 10.0 mi SW 10.4 mph - N/A   Clear
4:53 PM 75.0 °F 55.0 °F 50% 30.01 in 10.0 mi SSW 8.1 mph - N/A   Clear
5:53 PM 73.0 °F 55.9 °F 55% 30.01 in 10.0 mi SSW 6.9 mph - N/A   Mostly Cloudy
6:53 PM 70.0 °F 61.0 °F 73% 30.02 in 10.0 mi SW 3.5 mph - N/A   Overcast
7:53 PM 68.0 °F 62.1 °F 81% 30.02 in 10.0 mi Calm Calm - N/A   Clear
8:53 PM 66.0 °F 61.0 °F 84% 30.04 in 10.0 mi Calm Calm - N/A   Clear
9:53 PM 66.0 °F 61.0 °F 84% 30.05 in 10.0 mi Calm Calm - N/A   Mostly Cloudy
10:53 PM 64.9 °F 61.0 °F 87% 30.05 in 10.0 mi Calm Calm - N/A   Overcast
11:53 PM 64.9 °F 61.0 °F 87% 30.06 in 10.0 mi NE 3.5 mph - N/A   Overcast